Weather reports worldwide

Advertisment
Twenthe, Netherlands (6290): temperature & dewpoint: 09.12.2019 00:00:00 - 15.12.2019 00:00:00 (CET)Twenthe, Netherlands (6290): temperature 5cm: 09.12.2019 00:00:00 - 15.12.2019 00:00:00 (CET)Twenthe, Netherlands (6290): wind speed & gusts: 09.12.2019 00:00:00 - 15.12.2019 00:00:00 (CET)Twenthe, Netherlands (6290): wind direction: 09.12.2019 00:00:00 - 15.12.2019 00:00:00 (CET)Twenthe, Netherlands (6290): reduced air pressure: 09.12.2019 00:00:00 - 15.12.2019 00:00:00 (CET)Twenthe, Netherlands (6290): visibility: 09.12.2019 00:00:00 - 15.12.2019 00:00:00 (CET)Twenthe, Netherlands (6290): precipitation: 09.12.2019 00:00:00 - 15.12.2019 00:00:00 (CET)
Date & Time tt [°C] td [°C] tt 5cm [°C] ff [km/h] ff [kn] fx [km/h] fx [kn] dd ppp [hPa] vv [km] rr [mm]
15.12.2019 00:00:00 3,9 0,8 2,6 18 10 - - S 996,9 16 -
14.12.2019 23:00:00 3,6 0,5 2,4 14 8 25 14 SSW 997,5 21 0,0
14.12.2019 22:00:00 4,4 0,5 3,2 22 12 36 19 SW 997,0 29 0,0
14.12.2019 21:00:00 4,8 1,7 3,9 22 12 36 19 SW 996,3 38 0,0
14.12.2019 20:00:00 4,2 2,7 3,5 22 12 32 18 SW 995,2 24 0,0
14.12.2019 19:00:00 2,9 2,1 2,3 14 8 43 23 SW 994,0 50 0,3
14.12.2019 18:00:00 4,1 2,6 4,0 29 16 54 29 W 992,2 32 0,4
14.12.2019 17:00:00 5,7 4,4 5,2 25 14 36 19 S 989,3 10 0,9
14.12.2019 16:00:00 5,3 3,2 5,0 25 14 47 25 SW 990,5 8 0,3
14.12.2019 15:00:00 7,1 2,4 6,7 25 14 54 29 SW 990,0 23 0,0
14.12.2019 14:00:00 7,1 1,9 6,7 32 18 54 29 SW 989,7 30 0,0
14.12.2019 13:00:00 7,1 3,0 6,6 36 19 58 31 WSW 988,8 40 0,0
14.12.2019 12:00:00 6,7 3,7 6,4 29 16 50 27 WSW 988,0 29 0,0
14.12.2019 11:00:00 5,7 4,0 5,4 29 16 40 21 WSW 987,0 13 0,3
14.12.2019 10:00:00 3,6 2,2 2,9 32 18 50 27 W 985,9 3,2 1,9
14.12.2019 09:00:00 4,6 3,9 4,2 18 10 32 18 SW 984,3 17 0,0
14.12.2019 08:00:00 4,1 3,3 3,6 14 8 22 12 SSW 982,9 33 0,7
14.12.2019 07:00:00 4,0 3,3 3,9 11 6 18 10 SW 982,4 10 1,9
14.12.2019 06:00:00 3,8 3,1 3,6 7 4 32 18 SW 981,6 7 1,9
14.12.2019 05:00:00 5,0 3,2 4,6 18 10 36 19 SSW 981,4 13 0,1
14.12.2019 04:00:00 5,3 3,1 4,9 18 10 32 18 SSW 981,6 16 0,0
14.12.2019 03:00:00 5,4 3,2 4,9 18 10 36 19 S 982,1 16 0,0
14.12.2019 02:00:00 5,4 3,3 4,9 22 12 36 19 SSW 982,4 17 0,0
14.12.2019 01:00:00 4,6 3,2 3,4 18 10 36 19 S 982,8 16 0,0
14.12.2019 00:00:00 5,3 3,9 4,5 22 12 36 19 SSW 983,1 16 0,0
13.12.2019 23:00:00 5,7 4,8 5,3 22 12 32 18 SSW 983,3 16 0,0
13.12.2019 22:00:00 5,3 4,8 4,9 18 10 25 14 SW 983,2 8 0,0
13.12.2019 21:00:00 4,5 4,2 4,2 14 8 22 12 SW 983,2 5 0,0
13.12.2019 20:00:00 3,5 3,2 3,4 11 6 18 10 SSW 982,8 3,4 0,2
13.12.2019 19:00:00 3,0 2,7 3,0 7 4 14 8 WSW 982,1 6 0,3
13.12.2019 18:00:00 2,8 2,5 2,8 7 4 11 6 W 981,6 6 0,9
13.12.2019 17:00:00 3,0 2,7 3,0 7 4 11 6 NW 980,5 7 0,2
13.12.2019 16:00:00 3,2 2,7 3,3 4 2 11 6 N 979,1 12 0,5
13.12.2019 15:00:00 3,4 2,7 3,6 7 4 11 6 NE 977,8 16 0,4
13.12.2019 14:00:00 3,4 2,6 3,6 7 4 14 8 ENE 976,7 17 0,4
13.12.2019 13:00:00 3,6 2,1 3,8 7 4 14 8 ESE 976,0 26 0,3
13.12.2019 12:00:00 3,7 1,4 3,8 11 6 25 14 ESE 975,5 50 0,0
13.12.2019 11:00:00 3,4 0,9 3,4 14 8 29 16 ESE 975,2 49 0,0
13.12.2019 10:00:00 3,2 0,8 3,0 14 8 29 16 ESE 975,0 50 0,0
13.12.2019 09:00:00 3,1 0,6 2,8 18 10 25 14 ESE 974,8 49 0,0
13.12.2019 08:00:00 2,7 1,0 2,5 18 10 25 14 ESE 975,1 13 0,0
13.12.2019 07:00:00 2,7 1,1 2,4 14 8 29 16 ESE 975,5 15 0,0
13.12.2019 06:00:00 2,4 1,2 2,3 18 10 36 19 ESE 976,4 8 0,2
13.12.2019 05:00:00 2,9 0,8 2,6 25 14 40 21 SSE 977,4 17 0,2
13.12.2019 04:00:00 3,8 -0,4 3,3 18 10 32 18 SE 978,5 48 0,0
13.12.2019 03:00:00 3,8 -0,3 3,4 22 12 36 19 SE 979,6 50 0,0
13.12.2019 02:00:00 3,7 -0,3 2,9 25 14 40 21 SE 981,1 48 0,0
13.12.2019 01:00:00 3,6 -0,3 2,9 25 14 40 21 SE 983,0 50 0,0
13.12.2019 00:00:00 3,6 -0,2 3,0 25 14 40 21 SSE 984,9 49 0,0
12.12.2019 23:00:00 3,7 0,0 3,1 25 14 40 21 SE 986,5 49 0,0
12.12.2019 22:00:00 3,5 -0,2 2,9 25 14 43 23 SSE 988,2 50 0,0
12.12.2019 21:00:00 3,2 -0,6 2,5 25 14 40 21 SSE 989,9 50 0,0
12.12.2019 20:00:00 3,2 -0,6 2,4 25 14 36 19 SSE 991,3 49 0,0
12.12.2019 19:00:00 3,3 -0,3 2,0 18 10 29 16 SSE 992,8 50 0,0
12.12.2019 18:00:00 3,3 0,5 2,1 14 8 25 14 SE 994,0 48 0,0
12.12.2019 17:00:00 3,4 0,8 2,3 14 8 25 14 SSE 995,5 49 0,0
12.12.2019 16:00:00 4,2 0,9 3,4 14 8 25 14 S 996,5 43 0,0
12.12.2019 15:00:00 4,7 1,4 4,1 14 8 40 21 S 997,5 49 0,0
12.12.2019 14:00:00 4,9 1,9 4,6 18 10 32 18 SSW 998,5 26 0,0
12.12.2019 13:00:00 4,9 2,5 5,0 14 8 32 18 SSW 999,3 18 0,0
12.12.2019 12:00:00 4,5 2,9 4,6 14 8 25 14 SSW 1000,3 12 0,0
12.12.2019 11:00:00 4,6 3,0 4,6 18 10 29 16 SSW 1001,1 11 0,0
12.12.2019 10:00:00 4,7 3,5 4,7 14 8 22 12 SSW 1001,2 9 0,0
12.12.2019 09:00:00 4,7 3,8 4,5 14 8 22 12 SSW 1001,0 8 0,0
12.12.2019 08:00:00 4,8 3,7 4,5 14 8 25 14 SW 1001,0 10 0,1
12.12.2019 07:00:00 4,8 3,6 4,6 14 8 22 12 SSW 1000,9 13 0,0
12.12.2019 06:00:00 4,8 3,7 4,6 14 8 25 14 SSW 1001,1 12 0,0
12.12.2019 05:00:00 4,8 3,7 4,7 14 8 22 12 SSW 1001,3 13 0,0
12.12.2019 04:00:00 4,9 3,7 4,7 14 8 29 16 S 1001,5 13 0,0
12.12.2019 03:00:00 5,0 3,8 4,8 18 10 32 18 SSW 1001,9 12 0,0
12.12.2019 02:00:00 5,3 4,2 5,1 14 8 29 16 S 1002,3 10 0,0
12.12.2019 01:00:00 5,3 4,5 5,2 14 8 25 14 SSW 1002,4 8 0,0
12.12.2019 00:00:00 5,1 4,5 4,9 14 8 22 12 S 1003,2 6 0,0
11.12.2019 23:00:00 4,8 4,3 4,6 11 6 22 12 S 1003,5 5 0,0
11.12.2019 22:00:00 4,5 4,3 4,2 11 6 18 10 SSW 1003,8 4,5 0,0
11.12.2019 21:00:00 4,2 3,9 3,6 14 8 22 12 S 1003,9 3,9 0,0
11.12.2019 20:00:00 4,6 4,4 4,2 14 8 22 12 SSW 1004,4 3,6 0,0
11.12.2019 19:00:00 4,7 4,4 4,1 11 6 22 12 SSW 1004,6 3,9 0,0
11.12.2019 18:00:00 5,3 5,0 4,7 11 6 18 10 SSW 1004,6 4,5 0,1
11.12.2019 17:00:00 5,6 5,4 5,5 11 6 18 10 SW 1004,7 2,2 0,0
11.12.2019 16:00:00 5,6 5,4 5,6 11 6 22 12 SSW 1004,9 3,9 0,0
11.12.2019 15:00:00 5,7 5,4 5,7 11 6 18 10 SSW 1005,3 9 0,1
11.12.2019 14:00:00 5,8 5,4 5,8 11 6 18 10 SSW 1005,7 8 0,3
11.12.2019 13:00:00 5,9 5,4 5,9 14 8 22 12 SSW 1006,6 9 0,0
11.12.2019 12:00:00 6,0 5,7 6,0 14 8 22 12 SSW 1007,1 7 0,2
11.12.2019 11:00:00 5,7 5,3 5,7 14 8 25 14 SSW 1008,0 7 0,2
11.12.2019 10:00:00 5,5 5,0 5,4 18 10 29 16 SSW 1008,3 8 0,3
11.12.2019 09:00:00 5,4 4,9 5,2 18 10 32 18 SSW 1008,5 11 0,2
11.12.2019 08:00:00 5,3 4,8 5,1 22 12 29 16 SSW 1008,6 11 0,9
11.12.2019 07:00:00 5,1 4,6 5,0 18 10 32 18 S 1008,8 12 0,9
11.12.2019 06:00:00 4,9 4,2 4,7 22 12 36 19 S 1009,1 14 0,6
11.12.2019 05:00:00 4,9 3,9 4,7 25 14 43 23 S 1009,1 6 0,0
11.12.2019 04:00:00 5,9 2,4 5,7 29 16 50 27 SSW 1009,3 31 0,0
11.12.2019 03:00:00 6,2 1,4 5,9 29 16 54 29 SSW 1009,6 37 0,0
11.12.2019 02:00:00 6,7 -0,2 6,2 32 18 50 27 SSW 1009,9 47 0,0
11.12.2019 01:00:00 6,3 0,1 5,9 29 16 58 31 S 1010,3 50 0,0
11.12.2019 00:00:00 5,8 -0,3 5,3 32 18 65 35 S 1011,4 48 0,0
10.12.2019 23:00:00 5,5 -1,1 5,2 32 18 47 25 S 1011,8 49 0,0
10.12.2019 22:00:00 5,7 -1,6 5,3 36 19 58 31 S 1012,6 47 0,0
10.12.2019 21:00:00 5,8 -1,6 5,2 32 18 58 31 S 1013,6 46 0,0
10.12.2019 20:00:00 5,5 -0,5 4,9 32 18 54 29 S 1014,8 49 0,0
10.12.2019 19:00:00 5,4 -0,1 4,8 29 16 47 25 S 1016,1 49 0,0
10.12.2019 18:00:00 5,0 0,4 4,4 25 14 43 23 S 1017,2 45 0,0
10.12.2019 17:00:00 4,9 0,2 3,9 25 14 36 19 S 1018,4 35 0,0
10.12.2019 16:00:00 4,9 0,7 3,8 22 12 40 21 S 1019,5 25 0,0
10.12.2019 15:00:00 5,5 0,7 4,9 25 14 43 23 SSW 1020,2 25 0,0
10.12.2019 14:00:00 5,6 1,6 5,5 22 12 36 19 SSW 1021,6 21 0,0
10.12.2019 13:00:00 5,5 2,4 5,5 18 10 29 16 S 1022,8 19 0,0
10.12.2019 12:00:00 4,5 2,1 4,6 18 10 25 14 S 1023,7 20 0,0
10.12.2019 11:00:00 2,8 1,1 2,2 14 8 18 10 S 1024,3 16 0,0
10.12.2019 10:00:00 2,0 0,7 1,0 11 6 18 10 SSW 1024,5 14 0,0
10.12.2019 09:00:00 0,4 -0,6 -1,5 7 4 11 6 S 1024,4 15 0,0
10.12.2019 08:00:00 0,3 -1,1 -1,8 7 4 11 6 S 1023,9 16 0,0
10.12.2019 07:00:00 1,1 -0,8 -1,8 7 4 14 8 SW 1023,5 16 0,0
10.12.2019 06:00:00 0,0 -1,8 -2,3 11 6 14 8 WSW 1023,1 17 0,0
10.12.2019 05:00:00 0,9 -1,1 -1,3 11 6 22 12 WSW 1022,8 19 0,0
10.12.2019 04:00:00 1,1 -0,9 -1,3 7 4 14 8 WSW 1022,1 19 0,0
10.12.2019 03:00:00 1,9 -0,4 0,9 14 8 18 10 W 1021,4 18 0,0
10.12.2019 02:00:00 1,4 -0,9 -0,5 11 6 18 10 WSW 1020,1 18 0,0
10.12.2019 01:00:00 3,4 -0,1 1,8 7 4 22 12 W 1019,5 18 0,0
10.12.2019 00:00:00 4,4 0,1 3,3 14 8 22 12 W 1018,3 19 0,0
09.12.2019 23:00:00 3,4 -0,1 1,9 11 6 25 14 W 1017,1 19 0,0
09.12.2019 22:00:00 4,2 0,8 3,5 14 8 22 12 WNW 1015,8 17 0,0
09.12.2019 21:00:00 4,4 1,0 3,3 11 6 22 12 WNW 1014,4 19 0,0
09.12.2019 20:00:00 5,6 1,5 4,8 18 10 29 16 NW 1012,6 18 0,0
09.12.2019 19:00:00 5,7 1,9 4,9 18 10 29 16 WNW 1010,3 16 0,0
09.12.2019 18:00:00 6,5 3,9 6,0 14 8 32 18 NW 1007,8 17 0,0
09.12.2019 17:00:00 6,5 4,6 6,2 18 10 40 21 NW 1005,4 44 0,1
09.12.2019 16:00:00 7,0 5,1 6,6 22 12 32 18 NW 1002,8 46 0,2
09.12.2019 15:00:00 7,8 5,3 7,3 18 10 25 14 W 1000,6 23 0,0
09.12.2019 14:00:00 8,3 5,4 8,7 14 8 25 14 W 998,9 36 0,0
09.12.2019 13:00:00 7,3 5,9 7,3 14 8 25 14 WSW 997,8 19 0,0
09.12.2019 12:00:00 6,7 5,5 6,5 18 10 25 14 W 996,7 28 0,0
09.12.2019 11:00:00 6,3 5,7 6,4 11 6 22 12 WSW 995,8 26 0,1
09.12.2019 10:00:00 6,0 5,5 5,8 11 6 18 10 SW 994,4 3,7 0,2
09.12.2019 09:00:00 5,6 4,7 5,3 14 8 32 18 S 993,5 8 0,3
09.12.2019 08:00:00 5,9 4,5 5,6 18 10 40 21 SSW 993,4 17 0,4
09.12.2019 07:00:00 6,6 4,0 6,2 22 12 47 25 SSW 993,5 24 0,0
09.12.2019 06:00:00 6,9 3,8 6,3 22 12 40 21 SSW 993,8 29 0,1
09.12.2019 05:00:00 6,7 4,1 6,1 22 12 40 21 SSW 994,4 17 0,3
09.12.2019 04:00:00 7,0 3,7 6,1 25 14 47 25 SSW 994,9 31 0,0
09.12.2019 03:00:00 6,9 3,7 6,3 25 14 43 23 SSW 995,1 30 0,0
09.12.2019 02:00:00 6,8 3,5 6,1 25 14 43 23 SSW 995,4 34 0,0
09.12.2019 01:00:00 7,0 3,8 6,4 29 16 47 25 SW 995,7 19 0,0
09.12.2019 00:00:00 7,5 3,8 7,1 29 16 50 27 SW 995,9 38 0,0

tt = temperature
td = dewpoint
tt 5cm = temperature 5cm
ff = wind speed
fx = gusts
dd = wind direction
ppp = reduced air pressure
vv = visibility
rr = precipitation

Next stations